When you browse on this site, cookies collect data to enhance your experience and personalize the content and advertising you see.
Visit our Privacy Policy to learn more. By continuing to use the site, you agree to this use of cookies and data.
  • In Hungary
  • List of Countries
  • For 7 days
  • Water Temperature
  • Satellite Maps
  • Weather Map
  • News
  • Weather Widgets
  • user-avatar
    Login

    Hourly Weather Henin

    Today, 20 May, Monday

    Time Temperature Precipitation Wind Pressure Humidity
    00:00 +16°C° 0 mm 3 mps 738 mmHg 95%
    01:00 +16°C° 0 mm 3 mps 738 mmHg 96%
    02:00 +15°C° 0 mm 4 mps 738 mmHg 96%
    03:00 +15°C° 0 mm 4 mps 737 mmHg 96%
    04:00 +15°C° 0 mm 4 mps 737 mmHg 97%
    05:00 +16°C° 0 mm 5 mps 737 mmHg 94%
    06:00 +17°C° 0 mm 5 mps 737 mmHg 91%
    07:00 +19°C° 0 mm 6 mps 737 mmHg 88%
    08:00 +20°C° 0 mm 6 mps 737 mmHg 85%
    09:00 +21°C° 0 mm 6 mps 737 mmHg 81%
    10:00 +22°C° 0 mm 5 mps 737 mmHg 78%
    11:00 +23°C° 1.7 mm 5 mps 737 mmHg 74%
    12:00 +25°C° 1.7 mm 5 mps 737 mmHg 71%
    13:00 +25°C° 1.7 mm 5 mps 737 mmHg 68%
    14:00 +25°C° 0.2 mm 5 mps 737 mmHg 69%
    15:00 +23°C° 0.2 mm 5 mps 736 mmHg 71%
    16:00 +23°C° 0.2 mm 5 mps 736 mmHg 73%
    17:00 +21°C° 0.2 mm 4 mps 736 mmHg 78%
    18:00 +20°C° 0.2 mm 4 mps 736 mmHg 84%
    19:00 +18°C° 0.2 mm 3 mps 736 mmHg 90%
    20:00 +18°C° 0.1 mm 3 mps 736 mmHg 92%
    21:00 +17°C° 0.1 mm 3 mps 736 mmHg 93%
    22:00 +16°C° 0.1 mm 3 mps 736 mmHg 95%
    23:00 +16°C° 0 mm 3 mps 736 mmHg 95%

    Tomorrow, 21 May, Tuesday

    Time Temperature Precipitation Wind Pressure Humidity
    00:00 +15°C° 0 mm 2 mps 736 mmHg 95%
    01:00 +15°C° 0 mm 2 mps 736 mmHg 95%
    02:00 +15°C° 0.1 mm 2 mps 736 mmHg 95%
    03:00 +15°C° 0.1 mm 2 mps 736 mmHg 94%
    04:00 +15°C° 0.1 mm 1 mps 736 mmHg 94%
    05:00 +16°C° 0.1 mm 1 mps 736 mmHg 90%
    06:00 +18°C° 0.1 mm 1 mps 736 mmHg 87%
    07:00 +19°C° 0.1 mm 1 mps 736 mmHg 83%
    08:00 +18°C° 0.3 mm 2 mps 736 mmHg 81%
    09:00 +19°C° 0.3 mm 2 mps 735 mmHg 80%
    10:00 +20°C° 0.3 mm 3 mps 735 mmHg 78%
    11:00 +20°C° 2 mm 4 mps 735 mmHg 78%
    12:00 +20°C° 2 mm 4 mps 735 mmHg 78%
    13:00 +20°C° 2 mm 5 mps 734 mmHg 78%
    14:00 +19°C° 2.2 mm 5 mps 734 mmHg 79%
    15:00 +19°C° 2.2 mm 5 mps 734 mmHg 81%
    16:00 +17°C° 2.2 mm 5 mps 734 mmHg 82%
    17:00 +16°C° 0.3 mm 6 mps 734 mmHg 85%
    18:00 +15°C° 0.3 mm 7 mps 735 mmHg 87%
    19:00 +13°C° 0.3 mm 8 mps 735 mmHg 90%
    20:00 +13°C° 0.6 mm 8 mps 735 mmHg 90%
    21:00 +14°C° 0.6 mm 7 mps 736 mmHg 91%
    22:00 +12°C° 0.6 mm 7 mps 736 mmHg 92%
    23:00 +13°C° 0.4 mm 6 mps 736 mmHg 92%

    Day after tomorrow, 22 May, Wednesday

    Time Temperature Precipitation Wind Pressure Humidity
    00:00 +13°C° 0.4 mm 5 mps 736 mmHg 93%
    01:00 +13°C° 0.4 mm 5 mps 736 mmHg 94%
    02:00 +13°C° 0.1 mm 5 mps 736 mmHg 94%
    03:00 +13°C° 0.1 mm 4 mps 736 mmHg 94%
    04:00 +13°C° 0.1 mm 4 mps 736 mmHg 94%
    05:00 +13°C° 0.1 mm 4 mps 736 mmHg 92%
    06:00 +14°C° 0.1 mm 4 mps 737 mmHg 91%
    07:00 +14°C° 0.1 mm 5 mps 737 mmHg 89%
    08:00 +16°C° 0.5 mm 5 mps 737 mmHg 85%
    09:00 +17°C° 0.5 mm 5 mps 737 mmHg 81%
    10:00 +19°C° 0.5 mm 5 mps 737 mmHg 77%
    11:00 +19°C° 0.9 mm 6 mps 737 mmHg 77%
    12:00 +19°C° 0.9 mm 6 mps 737 mmHg 77%
    13:00 +18°C° 0.9 mm 7 mps 737 mmHg 77%
    14:00 +18°C° 0.1 mm 7 mps 737 mmHg 76%
    15:00 +19°C° 0.1 mm 6 mps 737 mmHg 75%
    16:00 +19°C° 0.1 mm 6 mps 737 mmHg 75%
    17:00 +17°C° 0.1 mm 5 mps 737 mmHg 79%
    18:00 +17°C° 0.1 mm 4 mps 737 mmHg 83%
    19:00 +15°C° 0.1 mm 4 mps 737 mmHg 87%
    20:00 +14°C° 0.2 mm 4 mps 737 mmHg 88%
    21:00 +14°C° 0.2 mm 4 mps 737 mmHg 89%
    22:00 +14°C° 0.2 mm 5 mps 738 mmHg 90%
    23:00 +13°C° 0.1 mm 4 mps 738 mmHg 91%

    23 May, Thursday

    Time Temperature Precipitation Wind Pressure Humidity
    00:00 +13°C° 0.1 mm 4 mps 738 mmHg 92%
    01:00 +12°C° 0.1 mm 4 mps 737 mmHg 93%
    02:00 +11°C° 0 mm 4 mps 737 mmHg 94%
    03:00 +11°C° 0 mm 4 mps 737 mmHg 95%
    04:00 +10°C° 0 mm 3 mps 737 mmHg 96%
    05:00 +11°C° 0 mm 3 mps 738 mmHg 93%
    06:00 +12°C° 0 mm 3 mps 738 mmHg 90%
    07:00 +14°C° 0 mm 3 mps 738 mmHg 87%
    08:00 +14°C° 0 mm 3 mps 738 mmHg 85%
    09:00 +16°C° 0 mm 3 mps 739 mmHg 84%
    10:00 +17°C° 0 mm 3 mps 739 mmHg 82%
    11:00 +17°C° 0.1 mm 2 mps 739 mmHg 80%
    12:00 +18°C° 0.1 mm 2 mps 739 mmHg 77%
    13:00 +20°C° 0.1 mm 1 mps 739 mmHg 75%
    14:00 +18°C° 0.8 mm 3 mps 740 mmHg 79%
    15:00 +17°C° 0.8 mm 4 mps 740 mmHg 83%
    16:00 +16°C° 0.8 mm 6 mps 740 mmHg 88%
    17:00 +15°C° 0.2 mm 7 mps 740 mmHg 89%
    18:00 +14°C° 0.2 mm 7 mps 741 mmHg 91%
    19:00 +12°C° 0.2 mm 7 mps 741 mmHg 93%
    20:00 +11°C° 0.1 mm 7 mps 741 mmHg 93%
    21:00 +11°C° 0.1 mm 6 mps 741 mmHg 93%
    22:00 +11°C° 0.1 mm 6 mps 742 mmHg 93%
    23:00 +10°C° 0.1 mm 6 mps 742 mmHg 92%

    24 May, Friday

    Time Temperature Precipitation Wind Pressure Humidity
    00:00 +9°C° 0.1 mm 6 mps 742 mmHg 91%
    01:00 +9°C° 0.1 mm 6 mps 742 mmHg 90%
    02:00 +8°C° 0.1 mm 5 mps 742 mmHg 90%
    03:00 +8°C° 0.1 mm 5 mps 742 mmHg 91%
    04:00 +8°C° 0.1 mm 4 mps 742 mmHg 91%
    05:00 +10°C° 0.1 mm 4 mps 742 mmHg 89%
    06:00 +10°C° 0.1 mm 4 mps 742 mmHg 88%
    07:00 +10°C° 0.1 mm 5 mps 742 mmHg 86%
    08:00 +12°C° 0 mm 4 mps 742 mmHg 81%
    09:00 +14°C° 0 mm 4 mps 742 mmHg 75%
    10:00 +15°C° 0 mm 4 mps 742 mmHg 70%
    11:00 +17°C° 0 mm 4 mps 741 mmHg 67%
    12:00 +18°C° 0 mm 4 mps 741 mmHg 64%
    13:00 +19°C° 0 mm 4 mps 741 mmHg 62%
    14:00 +19°C° 0.1 mm 4 mps 741 mmHg 62%
    15:00 +19°C° 0.1 mm 4 mps 740 mmHg 63%
    16:00 +19°C° 0.1 mm 3 mps 740 mmHg 63%
    17:00 +18°C° 0 mm 3 mps 740 mmHg 68%
    18:00 +16°C° 0 mm 2 mps 740 mmHg 74%
    19:00 +15°C° 0 mm 2 mps 739 mmHg 79%
    20:00 +14°C° 0 mm 1 mps 739 mmHg 82%
    21:00 +13°C° 0 mm 1 mps 739 mmHg 84%
    22:00 +12°C° 0 mm 1 mps 739 mmHg 87%
    23:00 +12°C° 0 mm 1 mps 739 mmHg 88%

    25 May, Saturday

    Time Temperature Precipitation Wind Pressure Humidity
    00:00 +11°C° 0 mm 1 mps 739 mmHg 89%
    01:00 +11°C° 0 mm 1 mps 739 mmHg 90%
    02:00 +11°C° 0 mm 1 mps 739 mmHg 91%
    03:00 +11°C° 0 mm 1 mps 739 mmHg 92%
    04:00 +10°C° 0 mm 1 mps 739 mmHg 93%
    05:00 +12°C° 0 mm 1 mps 739 mmHg 89%
    06:00 +14°C° 0 mm 1 mps 739 mmHg 84%
    07:00 +15°C° 0 mm 2 mps 739 mmHg 80%
    08:00 +17°C° 0 mm 2 mps 739 mmHg 74%
    09:00 +18°C° 0 mm 2 mps 740 mmHg 68%
    10:00 +19°C° 0 mm 2 mps 740 mmHg 61%
    11:00 +20°C° 0.1 mm 2 mps 739 mmHg 59%
    12:00 +20°C° 0.1 mm 2 mps 739 mmHg 57%
    13:00 +21°C° 0.1 mm 2 mps 739 mmHg 55%
    14:00 +21°C° 0 mm 3 mps 739 mmHg 56%
    15:00 +21°C° 0 mm 3 mps 739 mmHg 57%
    16:00 +21°C° 0 mm 3 mps 739 mmHg 58%
    17:00 +19°C° 0 mm 3 mps 739 mmHg 63%
    18:00 +18°C° 0 mm 2 mps 739 mmHg 69%
    19:00 +16°C° 0 mm 2 mps 739 mmHg 74%
    20:00 +15°C° 0 mm 1 mps 740 mmHg 77%
    21:00 +14°C° 0 mm 1 mps 740 mmHg 79%
    22:00 +13°C° 0 mm 1 mps 740 mmHg 82%
    23:00 +12°C° 0 mm 1 mps 740 mmHg 82%
    Show more